Miscellaneous Local Product
Issued by NWS Hastings, NE

Home | Current Version | Previous Version | Graphics & Text | Print | Product List | Glossary On
Versions: 1 2 3 4 5 6 7 8 9 10 11 12 13 14 15 16 17 18 19 20 21 22 23 24 25 26 27 28 29 30 31 32 33 34 35 36 37 38 39 40 41 42 43 44 45 46 47 48 49 50
000
AXUS43 KGID 291902
MISGRI

GID CWA HOURLY WEATHER ROUNDUP
NATIONAL WEATHER SERVICE HASTINGS NE
200 PM CDT SAT AUG 29 2015

NOTE: "FAIR" INDICATES FEW OR NO CLOUDS BELOW 12,000 FEET WITH NO
SIGNIFICANT WEATHER AND/OR OBSTRUCTIONS TO VISIBILITY.

...SOUTH CENTRAL NEBRASKA...

CITY           SKY/WX    TMP DP  RH WIND       PRES   REMARKS
GRAND ISLAND   SUNNY     79  61  53 CALM      30.09F
HASTINGS       SUNNY     78  63  59 NE7       30.10S
KEARNEY        SUNNY     82  61  47 N6        30.09F
ORD            MOSUNNY   84  64  50 E5        30.06F
YORK           SUNNY     73  64  73 N7        30.10S
AURORA         SUNNY     76  63  64 NE5       30.09F
LEXINGTON      SUNNY     82  63  52 SW3       30.11F
HOLDREGE       SUNNY     79  63  58 CALM      30.11F
HEBRON         SUNNY     73  59  61 N6        30.08S

...NEBRASKA PANHANDLE...

CITY           SKY/WX    TMP DP  RH WIND       PRES   REMARKS
CHADRON        SUNNY     94  42  16 SW10G21   30.04F HAZE    HX  90
ALLIANCE       SUNNY     90  39  16 S12       30.12F
SCOTTSBLUFF    SUNNY     89  52  28 E8        30.11F
SIDNEY         SUNNY     89  38  16 S14G21    30.17F

...WESTERN AND NORTH CENTRAL NEBRASKA...

CITY           SKY/WX    TMP DP  RH WIND       PRES   REMARKS
VALENTINE      MOSUNNY   88  53  30 SW6       30.05F
AINSWORTH      MOSUNNY   87  57  35 S6        30.07F
ONEILL         MOSUNNY   83  63  51 S6        30.06F
BROKEN BOW     MOSUNNY   84  60  44 CALM      30.10F
IMPERIAL       SUNNY     90  51  26 S7        30.13F
NORTH PLATTE   MOSUNNY   85  60  42 VRB3      30.10F
MCCOOK         SUNNY     90  45  21 VRB3      30.11F

...EASTERN NEBRASKA...

CITY           SKY/WX    TMP DP  RH WIND       PRES   REMARKS
NORFOLK        MOSUNNY   76  61  59 E5        30.07F
SO SIOUX CITY  MOSUNNY   69  61  75 VRB3      30.07F
TEKAMAH        CLOUDY    65  60  84 CALM      30.08F
COLUMBUS       SUNNY     73  61  64 NE3       30.08F
ALBION         SUNNY     78  64  61 S3        30.08F
OMAHA EPPLEY   CLOUDY    67  61  81 NW8       30.07F
OFFUTT AFB     CLOUDY    66  61  82 N6        30.07F
MILLARD        CLOUDY    66  60  81 NE3       30.08S
LINCOLN        CLOUDY    69  61  75 VRB6      30.09F
NEBRASKA CITY  CLOUDY    64  62  96 N6        30.08S
BEATRICE       CLOUDY    65  61  87 N5        30.09S
FALLS CITY     CLOUDY    67  63  87 N7        30.06S

...NORTHERN KANSAS...

CITY           SKY/WX    TMP DP  RH WIND       PRES   REMARKS
GOODLAND       SUNNY     89  45  21 SW8       30.17F
HILL CITY      SUNNY     89  56  32 NE6       30.10F
NORTON         CLEAR     84  54  34 NE3       30.09F
PHILLIPSBURG   SUNNY     88  57  35 N6        30.09F
SMITH CENTER   SUNNY     82  59  44 N7        30.08F
HAYS           SUNNY     84  55  37 NE12G20   30.09F
RUSSELL        SUNNY     83  59  44 N9        30.06F
CONCORDIA      CLOUDY    70  62  76 E3        30.08F
SALINA         CLOUDY    72  62  71 N6        30.07F
TOPEKA         CLOUDY    72  66  81 N6        30.04F



USA.gov is the U.S. government's official web portal to all federal, state and local government web resources and services.